�������C�����ː����j�^�v���󋵏��
Date,Time,Cs137(Bq/L),Cs134(Bq/L),�S��(Bq/L)
2017/11/17,00:00,0.74,ND,ND
2017/11/17,00:10,0.74,ND,ND
2017/11/17,00:20,0.73,ND,ND
2017/11/17,00:30,0.75,ND,ND
2017/11/17,00:40,0.76,ND,ND
2017/11/17,00:50,0.73,ND,ND
2017/11/17,01:00,0.73,ND,ND
2017/11/17,01:10,0.62,ND,ND
2017/11/17,01:20,0.62,ND,ND
2017/11/17,01:30,0.62,ND,ND
2017/11/17,01:40,0.62,ND,ND
2017/11/17,01:50,0.63,ND,ND
2017/11/17,02:00,0.62,ND,ND
2017/11/17,02:10,0.72,ND,ND
2017/11/17,02:20,0.58,0.027,ND
2017/11/17,02:30,0.72,ND,ND
2017/11/17,02:40,0.62,ND,9.5
2017/11/17,02:50,0.73,ND,ND
2017/11/17,03:00,0.72,ND,10
2017/11/17,03:10,0.64,ND,9.7
2017/11/17,03:20,0.72,ND,ND
2017/11/17,03:30,0.62,ND,ND
2017/11/17,03:40,0.61,ND,ND
2017/11/17,03:50,0.56,0.027,9.5
2017/11/17,04:00,0.62,ND,ND
2017/11/17,04:10,0.62,ND,ND
2017/11/17,04:20,0.72,ND,8.8
2017/11/17,04:30,0.73,ND,ND
2017/11/17,04:40,0.74,ND,ND
2017/11/17,04:50,0.73,ND,ND
2017/11/17,05:00,0.74,ND,ND
2017/11/17,05:10,0.73,ND,ND
2017/11/17,05:20,0.74,ND,ND
2017/11/17,05:30,0.73,ND,ND
2017/11/17,05:40,0.74,ND,ND
2017/11/17,05:50,0.73,ND,ND
2017/11/17,06:00,0.72,ND,ND
2017/11/17,06:10,0.73,ND,ND
2017/11/17,06:20,0.72,ND,ND
2017/11/17,06:30,0.74,ND,ND
2017/11/17,06:40,0.64,ND,ND
2017/11/17,06:50,0.64,ND,ND
2017/11/17,07:00,0.65,ND,ND
2017/11/17,07:10,0.65,ND,ND
2017/11/17,07:20,0.64,ND,ND
2017/11/17,07:30,0.64,ND,ND
2017/11/17,07:40,0.72,ND,ND
2017/11/17,07:50,0.64,ND,ND
2017/11/17,08:00,0.63,ND,8.9
2017/11/17,08:10,0.59,0.027,ND
2017/11/17,08:20,0.65,ND,ND
2017/11/17,08:30,0.73,ND,ND
2017/11/17,08:40,0.64,ND,ND
2017/11/17,08:50,0.59,0.042,ND
2017/11/17,09:00,0.74,ND,ND
2017/11/17,09:10,0.74,ND,ND
2017/11/17,09:20,0.74,ND,ND
2017/11/17,09:30,0.73,ND,ND
2017/11/17,09:40,0.72,ND,ND
2017/11/17,09:50,0.71,ND,ND
2017/11/17,10:00,0.60,ND,ND
2017/11/17,10:10,0.61,ND,ND
2017/11/17,10:20,0.59,ND,ND
2017/11/17,10:30,0.61,ND,ND
2017/11/17,10:40,0.56,0.035,ND
2017/11/17,10:50,0.56,0.051,ND
2017/11/17,11:00,0.66,ND,ND
2017/11/17,11:10,0.67,ND,ND
2017/11/17,11:20,0.73,ND,ND
2017/11/17,11:30,0.73,ND,ND
2017/11/17,11:40,0.73,ND,ND
2017/11/17,11:50,0.72,ND,ND
2017/11/17,12:00,0.70,ND,ND
2017/11/17,12:10,0.69,ND,ND
2017/11/17,12:20,0.64,ND,ND
2017/11/17,12:30,0.73,ND,ND
2017/11/17,12:40,0.73,ND,ND
2017/11/17,12:50,0.73,ND,ND
2017/11/17,13:00,0.73,ND,ND
2017/11/17,13:10,0.72,ND,ND
2017/11/17,13:20,0.72,ND,9.0
2017/11/17,13:30,0.73,ND,11
2017/11/17,13:40,0.73,ND,ND
2017/11/17,13:50,0.68,0.025,8.9
2017/11/17,14:00,0.72,ND,9.9
2017/11/17,14:10,0.58,0.034,ND
2017/11/17,14:20,0.57,0.039,ND
2017/11/17,14:30,0.55,0.044,ND
2017/11/17,14:40,0.55,0.043,ND
2017/11/17,14:50,0.57,0.046,ND
2017/11/17,15:00,0.64,ND,ND
2017/11/17,15:10,0.73,ND,ND
2017/11/17,15:20,0.73,ND,ND
2017/11/17,15:30,0.73,ND,ND
2017/11/17,15:40,0.72,ND,ND
2017/11/17,15:50,0.73,ND,ND
2017/11/17,16:00,0.70,ND,ND
2017/11/17,16:10,0.71,ND,ND
2017/11/17,16:20,0.62,ND,ND
2017/11/17,16:30,0.61,ND,ND
2017/11/17,16:40,0.61,ND,ND
2017/11/17,16:50,0.61,ND,ND
2017/11/17,17:00,0.62,ND,ND
2017/11/17,17:10,0.72,ND,ND
2017/11/17,17:20,0.62,ND,ND
2017/11/17,17:30,0.64,ND,ND
2017/11/17,17:40,0.64,ND,ND
2017/11/17,17:50,0.65,ND,ND
2017/11/17,18:00,0.65,ND,ND
2017/11/17,18:10,0.61,0.036,ND
2017/11/17,18:20,0.62,0.037,ND
2017/11/17,18:30,0.61,0.042,ND
2017/11/17,18:40,0.63,0.039,ND
2017/11/17,18:50,0.65,0.038,9.3
2017/11/17,19:00,0.65,0.043,ND
2017/11/17,19:10,0.65,0.047,ND
2017/11/17,19:20,0.66,0.040,ND
2017/11/17,19:30,0.67,0.031,ND
2017/11/17,19:40,0.66,0.030,ND
2017/11/17,19:50,0.66,0.033,ND
2017/11/17,20:00,0.68,0.025,ND
2017/11/17,20:10,0.70,0.034,ND
2017/11/17,20:20,0.84,ND,ND
2017/11/17,20:30,0.85,ND,ND
2017/11/17,20:40,0.85,ND,9.3
2017/11/17,20:50,0.85,ND,9.5
2017/11/17,21:00,0.85,ND,ND
2017/11/17,21:10,0.83,ND,ND
2017/11/17,21:20,0.85,ND,ND
2017/11/17,21:30,0.84,ND,ND
2017/11/17,21:40,0.84,ND,ND
2017/11/17,21:50,0.84,ND,ND
2017/11/17,22:00,0.84,ND,ND
2017/11/17,22:10,0.85,ND,ND
2017/11/17,22:20,0.78,0.031,ND
2017/11/17,22:30,0.81,0.029,ND
2017/11/17,22:40,0.68,0.051,ND
2017/11/17,22:50,0.85,ND,ND
2017/11/17,23:00,0.89,ND,ND
2017/11/17,23:10,0.87,ND,ND
2017/11/17,23:20,0.91,ND,ND
2017/11/17,23:30,0.90,ND,ND
2017/11/17,23:40,0.92,ND,ND
2017/11/17,23:50,0.90,ND,ND
